Regional Weather Roundup
Issued by NWS San Diego, CA

Home | Current Version | Previous Version | Text Only | Print | Product List | Glossary On
Versions: 1 2 3 4 5 6 7 8 9 10 11 12 13 14 15 16 17 18 19 20 21 22 23 24 25 26 27 28 29 30 31 32 33 34 35 36 37 38 39 40 41 42 43 44 45 46 47 48 49 50
742
ASUS46 KSGX 061911
RWRSGX

SAN DIEGO HOURLY WEATHER ROUNDUP
NATIONAL WEATHER SERVICE SAN DIEGO CA
1100 AM PST SAT FEB 06 2016

NOTE: "FAIR" INDICATES FEW OR NO CLOUDS BELOW 12,000 FEET WITH NO
SIGNIFICANT WEATHER AND/OR OBSTRUCTIONS TO VISIBILITY.

CAZ042-043-060-061-PZZ750-775-062000-

GREATER SAN DIEGO AREA

CITY           SKY/WX    TMP DP  RH WIND       PRES   REMARKS
LINDBERGH FLD  MOSUNNY   72  27  18 VRB3      30.26F
POINT LOMA       N/A     71  25  18 N6          N/A
NATIONAL CITY    N/A     70  32  24 W1        30.25F
CHULA VISTA      N/A     73  34  24 NE6       30.17F
IMPERIAL BEACH SUNNY     74  26  16 N12       30.24F
BROWN FIELD    SUNNY     71  25  17 VRB3      30.24F
MIRAMAR MCAS   MOSUNNY   73  22  14 W3        30.24F
MONTGOMERY FLD SUNNY     71  25  17 W5        30.25F

$$

NORTH SAN DIEGO COUNTY

CITY           SKY/WX    TMP DP  RH WIND       PRES   REMARKS
CAMP PENDLETON SUNNY     75  23  14 E10       30.24F
OCEANSIDE AP   SUNNY     76  26  15 NE8       30.24F
OCEANSIDE HBR    N/A     74  27  17 NE2       30.26F
VISTA            N/A     71  31  23 CALM      30.25F
CARLSBAD       SUNNY     73  24  16 N5        30.24F
DEL MAR          N/A     70  32  24 CALM      30.27F
FALLBROOK        N/A     71  31  22 NE5       30.25F
ESCONDIDO        N/A     73  28  19 CALM      30.25F
SAN MARCOS       N/A     71  30  21 CALM      30.24F
POWAY            N/A     73  32  22 CALM      30.26F

$$

EAST SAN DIEGO COUNTY

CITY           SKY/WX    TMP DP  RH WIND       PRES   REMARKS
RAMONA         SUNNY     68  23  18 E22G28    30.27S
SANTEE LAKES     N/A     71  35  26 SE2       30.24F
LA MESA          N/A     69  31  24 CALM      30.19F
JAMUL            N/A     69  31  24 CALM      30.26F
DESCANSO N       N/A     62  19  19 NE7       30.18R
MT. LAGUNA OBS   N/A     42  11  27 E9        29.89F
CAMPO            N/A     60  21  22 NE25G32   30.25F

$$

ORANGE COUNTY AND THE LOS ANGELES BASIN

CITY           SKY/WX    TMP DP  RH WIND       PRES   REMARKS
JOHN WAYNE AP  SUNNY     71  28  20 NW3       30.26F
LAGUNA BEACH     N/A     67  46  46 S3        30.22F
LAKE FOREST FR   N/A     73  19  13 CALM      30.15F
HUNTINGTON BCH   N/A     73  41  31 SW3       30.28F
LOS ALAMITOS   SUNNY     73  28  19 CALM      30.26F
FULLERTON      SUNNY     76  21  12 E10       30.25F
LONG BEACH     SUNNY     72  28  19 N3        30.27F
L.A. AP        SUNNY     72  20  14 NW3       30.27F
L.A. DOWNTOWN  SUNNY     71  22  15 CALM      30.26F

$$

THE INLAND EMPIRE

CITY           SKY/WX    TMP DP  RH WIND       PRES   REMARKS
CORONA         SUNNY     73  25  16 SE16G22   30.28F
CHINO          SUNNY     72  25  17 VRB3      30.28F
ONTARIO        SUNNY     67  25  20 SW3       30.28F
SAN BERNARDINO SUNNY    N/A N/A N/A CALM      30.30F
RIVERSIDE AP   SUNNY     71  21  15 E8G17     30.29F
MORENO VALLEY    N/A     69  33  27 E6        28.42F
MARCH ARB      SUNNY     67  21  17 E10       30.29F
HORSETHIEF CYN   N/A     67  18  15 NE6       30.34F
PERRIS           N/A     66  28  23 E8        30.29F
HEMET EAST       N/A     62  16  17 CALM      30.20S
FRENCH VALLEY  FAIR      68  19  15 CALM      30.28F
TEMECULA         N/A     68  31  24 SW7       30.22F

$$

SAN BERNARDINO AND RIVERSIDE COUNTY MOUNTAINS

CITY           SKY/WX    TMP DP  RH WIND       PRES   REMARKS
BIG BEAR AP    SUNNY     45   9  23 E9        30.44F
ANGELUS OAKS     N/A     53  21  28 CALM      30.33F
PINE COVE        N/A     56  15  20 W1        30.32S

$$

SOUTHERN DESERT INCLUDING THE COACHELLA VALLEY

CITY           SKY/WX    TMP DP  RH WIND       PRES   REMARKS
PALM SPRINGS   SUNNY     68  23  18 CALM      30.38F
THOUSAND PALMS   N/A     70  24  18 SW2       30.35F
PALM DESERT      N/A     71  30  21 CALM      28.64F
THERMAL        SUNNY     70  19  14 VRB3      30.34F
BLYTHE         SUNNY     65  25  22 N12       30.37F
IMPERIAL AP    SUNNY     69  24  18 NW7       30.35F
EL CENTRO NAS  MOSUNNY   68  21  16 CALM      30.37F
YUMA AZ        SUNNY     68  22  17 N15       30.33
MEXICALI       SUNNY     64  23  20 NW8       30.36F

$$

UPPER DESERT

CITY           SKY/WX    TMP DP  RH WIND       PRES   REMARKS
VICTORVILLE AP SUNNY     54  21  28 N8        30.42F
HESPERIA         N/A     52  27  38 CALM      30.61F
APPLE VALLEY     N/A     55  23  28 CALM      30.37F
PALMDALE       SUNNY     51  26  37 NE3       30.44F
LANCASTER      SUNNY     52  25  35 E3        30.44F
EDWARDS AFB    SUNNY     51  21  31 CALM      30.42F
DAGGETT        SUNNY     57  23  26 N3        30.44F
29 PALMS N     SUNNY     58  21  24 N5        30.48F
NEEDLES        SUNNY     63  25  23 N20       30.40F

$$

REGIONAL REPORTS

CITY           SKY/WX    TMP DP  RH WIND       PRES   REMARKS
SANTA BARBARA  SUNNY     65  43  44 S7        30.29S
SANDBERG       SUNNY     51  22  31 E24G30    30.42F
LAS VEGAS NV   MOSUNNY   53  24  32 N3        30.43F
PHOENIX AZ     MOSUNNY   66  13  12 E18       30.31F
TIJUANA        SUNNY     73  18  12 E9        30.26F
ENSENADA NW      N/A     72  32  23 W2        30.17F

$$

OFFSHORE ISLANDS

CITY           SKY/WX    TMP DP  RH WIND       PRES   REMARKS
CATALINA ARPT  SUNNY     68  20  16 SE7       30.30S
SAN NICOLAS IS SUNNY    N/A N/A N/A N10       30.29S

$$

MARINE AND OFFSHORE BUOY REPORTS

STATION/POSITION SKY/WX   TEMP    WIND        PRES    SWELL
                          AIR SEA DIR/SP/G            HT/PER/DIR
                          (F)     (DEG/KT/KT) (MB)    (FT/S/D)
TANNER BANKS               60 59  340/  6/  6 1024.8F   7/310/15
S CLEMENTE BASIN           60 60  350/ 10/ 10 1024.4R   5/280/15
SAN NICOLAS IS.               57                N/A     7/290/13
SO. S. ROSA ISLA           58 58              1025.2S
W. S. BARBARA CH           58 58  300/  4/  4 1025.6S   7/290/15
M. S. BARBARA CH           58 58   60/  4/  6 1026.3R
S. MONICA BASIN            60 60   30/  2/  4 1025.7R   3/260/14
S PEDRO CHANNEL               59                N/A     2/270/14
DANA POINT                    59                N/A     3/280/14
OCEANSIDE OFFSHR              59                N/A     2/240/15
TORREY PINES OTR              60                N/A     3/270/14
LA JOLLA 1                 67 59   CALM  /  2 1024.6S
SAN DIEGO BAY                 60              1025.0R
POINT LOMA SOUTH              60                N/A     5/270/15

$$





USA.gov is the U.S. government's official web portal to all federal, state and local government web resources and services.